Regional Weather Roundup
Issued by NWS

Home | Current Version | Previous Version | Text Only | Print | Product List | Glossary Off
Versions: 1 2 3 4 5 6 7 8 9 10 11 12 13 14 15 16 17 18 19 20 21 22 23 24 25 26 27 28 29 30 31 32 33 34 35 36 37 38 39 40 41 42 43 44 45 46 47 48 49 50

000
ASUS44 KMEG 242100
RWRTN
TENNESSEE HOURLY STATE WEATHER ROUNDUP
NATIONAL WEATHER SERVICE MEMPHIS TN
400 PM CDT FRI MAR 24 2017

TNZ002-004-019-021-049-052-054-088>092-242200-
WEST TENNESSEE

CITY           SKY/WX    TMP DP  RH WIND       PRES   REMARKS
MEMPHIS INTL   CLOUDY    80  58  46 S21G31    30.06F
NWS MEMPHIS      N/A     77 N/A N/A MISG        N/A
JACKSON        PTSUNNY   74  57  55 S10G26    30.13F
DYERSBURG      CLOUDY    74  58  57 S14G23    30.08F
PARIS          MOSUNNY   72  54  53 S15       30.13F
$$

TNZ008-025-027-028-033-062-065-066-242200-
NORTH MIDDLE TENNESSEE

CITY           SKY/WX    TMP DP  RH WIND       PRES   REMARKS
NASHVILLE      CLOUDY    75  53  46 S16       30.19F
CLARKSVILLE    CLOUDY    74  52  46 SW17G26   30.15F
CROSSVILLE     CLOUDY    66  48  52 S13G18    30.29F
$$

TNZ061-075-076-078-094-096-097-242200-
SOUTH MIDDLE TENNESSEE

CITY           SKY/WX    TMP DP  RH WIND       PRES   REMARKS
TULLAHOMA      MOSUNNY   72  48  43 S13       30.25F
WINCHESTER     PTSUNNY   72  54  53 S12       30.25F
MCMINNVILLE    SUNNY     73  54  49 S9        30.24F
COLUMBIA       CLOUDY    73  55  53 S10       30.18F
SHELBYVILLE    MOSUNNY   75  55  50 S17       30.23F
$$

TNZ017-018-042-046-047-242200-
NORTHEAST TENNESSEE

CITY           SKY/WX    TMP DP  RH WIND       PRES   REMARKS
TRI CITIES     PTSUNNY   73  47  39 SW7       30.27F
$$

TNZ012-013-036-069-073-074-242200-
CENTRAL EAST TENNESSEE

CITY           SKY/WX    TMP DP  RH WIND       PRES   REMARKS
KNOXVILLE      MOSUNNY   70  48  45 SW15      30.27F
OAK RIDGE      PTSUNNY   71  46  40 S15G21    30.28F
GATLINBURG     MOSUNNY   73  46  38 CALM      30.26F
$$

TNZ083-085-099-242200-
SOUTHEAST TENNESSEE

CITY           SKY/WX    TMP DP  RH WIND       PRES   REMARKS
CHATTANOOGA    PTSUNNY   72  49  44 SE12G20   30.28F
$$

SKY/WX REPORTED AS FAIR MEANS FEW OR NO CLOUDS BELOW
12 THOUSAND FEET.





USA.gov is the U.S. government's official web portal to all federal, state and local government web resources and services.